TimeCDT,TemperatureF,Dew PointF,Humidity,Sea Level PressureIn,VisibilityMPH,Wind Direction,Wind SpeedMPH,Gust SpeedMPH,PrecipitationIn,Events,Conditions,WindDirDegrees,DateUTC
12:35 AM,48.2,47.3,97,29.70,3.0,North,9.2,-,N/A,,Overcast,360,2012-10-25 05:35:00
12:55 AM,47.7,46.8,97,29.68,2.5,North,9.2,-,N/A,,Overcast,360,2012-10-25 05:55:00
1:15 AM,47.8,46.9,97,29.67,3.0,North,10.4,-,N/A,Thunderstorm,Overcast,360,2012-10-25 06:15:00
1:35 AM,47.5,46.8,97,29.65,3.0,North,10.4,-,N/A,,Overcast,360,2012-10-25 06:35:00
1:55 AM,46.9,46.0,97,29.65,3.0,North,13.8,-,N/A,Rain-Thunderstorm,Light Thunderstorms and Rain,350,2012-10-25 06:55:00
2:35 AM,44.6,43.7,97,29.70,5.0,NW,19.6,25.3,0.03,Rain-Thunderstorm,Rain,320,2012-10-25 07:35:00
2:55 AM,43.7,42.8,97,29.74,3.0,NW,23.0,29.9,0.11,Rain-Thunderstorm,Heavy Thunderstorms and Rain,310,2012-10-25 07:55:00
3:15 AM,43.5,42.4,96,29.68,4.0,NE,16.1,25.3,0.08,Rain-Thunderstorm,Light Thunderstorms and Rain,50,2012-10-25 08:15:00
3:35 AM,44.6,42.8,93,29.72,10.0,NNW,10.4,-,0.08,Rain-Thunderstorm,Light Thunderstorms and Rain,330,2012-10-25 08:35:00
3:55 AM,44.1,42.8,95,29.72,10.0,NW,17.3,-,0.08,Rain,Light Rain,320,2012-10-25 08:55:00
4:15 AM,43.3,42.1,95,29.74,7.0,NW,16.1,23.0,0.01,Rain,Light Rain,320,2012-10-25 09:15:00
4:35 AM,42.8,41.4,95,29.72,5.0,NNW,19.6,27.6,0.02,Rain,Rain,340,2012-10-25 09:35:00
4:55 AM,42.1,40.6,95,29.74,7.0,NNW,21.9,28.8,0.04,Rain,Rain,330,2012-10-25 09:55:00
5:15 AM,41.9,40.3,94,29.74,7.0,NNW,24.2,32.2,N/A,Rain,Light Rain,340,2012-10-25 10:15:00
5:35 AM,41.4,39.6,93,29.76,7.0,NNW,19.6,25.3,0.01,Rain-Thunderstorm,Light Thunderstorms and Rain,330,2012-10-25 10:35:00
5:55 AM,41.0,39.2,93,29.78,1.8,NNW,20.7,26.5,0.10,Rain,Heavy Rain,330,2012-10-25 10:55:00
6:55 AM,39.9,37.6,91,29.80,5.0,NNW,23.0,29.9,0.04,Rain,Light Rain,340,2012-10-25 11:55:00
7:15 AM,39.9,37.8,92,29.83,10.0,NNW,20.7,26.5,N/A,,Overcast,330,2012-10-25 12:15:00
7:35 AM,40.3,37.9,91,29.83,10.0,NNW,16.1,29.9,N/A,,Overcast,330,2012-10-25 12:35:00
7:55 AM,40.1,38.3,93,29.85,3.0,NW,20.7,26.5,N/A,,Overcast,320,2012-10-25 12:55:00
8:55 AM,37.4,35.8,94,29.90,5.0,NW,23.0,32.2,N/A,,Overcast,320,2012-10-25 13:55:00
9:15 AM,37.0,35.2,93,29.92,5.0,NW,25.3,34.5,N/A,,Overcast,320,2012-10-25 14:15:00
9:55 AM,37.0,35.2,93,29.96,4.0,NW,23.0,32.2,N/A,,Overcast,320,2012-10-25 14:55:00
10:35 AM,37.4,35.6,93,29.98,5.0,NW,25.3,34.5,N/A,,Overcast,320,2012-10-25 15:35:00
10:55 AM,37.6,35.4,92,30.00,7.0,NNW,26.5,33.4,N/A,,Overcast,330,2012-10-25 15:55:00
11:15 AM,37.6,35.2,91,30.01,10.0,NW,21.9,29.9,N/A,,Overcast,320,2012-10-25 16:15:00
11:35 AM,38.3,35.6,90,30.02,10.0,NW,18.4,31.1,N/A,,Overcast,320,2012-10-25 16:35:00
11:55 AM,38.8,35.6,88,30.04,10.0,NW,19.6,26.5,N/A,,Overcast,320,2012-10-25 16:55:00
12:15 PM,39.2,35.2,86,30.04,10.0,NW,20.7,31.1,N/A,,Overcast,320,2012-10-25 17:15:00
12:35 PM,39.2,34.7,84,30.06,10.0,NW,23.0,33.4,N/A,,Overcast,320,2012-10-25 17:35:00
12:55 PM,39.7,35.2,84,30.06,10.0,NNW,21.9,28.8,N/A,,Overcast,330,2012-10-25 17:55:00
1:15 PM,39.6,34.2,81,30.06,10.0,NW,25.3,34.5,N/A,,Overcast,320,2012-10-25 18:15:00
1:55 PM,41.7,35.4,78,30.07,10.0,NNW,19.6,28.8,N/A,,Overcast,330,2012-10-25 18:55:00
2:15 PM,41.4,33.6,74,30.07,10.0,NW,24.2,27.6,N/A,,Overcast,320,2012-10-25 19:15:00
2:35 PM,41.9,33.4,72,30.08,10.0,NW,19.6,27.6,N/A,,Overcast,310,2012-10-25 19:35:00
2:55 PM,40.8,32.7,73,30.09,10.0,NW,19.6,29.9,N/A,,Overcast,320,2012-10-25 19:55:00
3:15 PM,39.9,32.0,73,30.11,10.0,NNW,21.9,28.8,N/A,,Overcast,330,2012-10-25 20:15:00
3:35 PM,39.6,32.0,74,30.12,10.0,NW,21.9,33.4,N/A,,Overcast,310,2012-10-25 20:35:00
3:55 PM,39.2,31.8,75,30.13,10.0,NW,20.7,29.9,N/A,,Overcast,320,2012-10-25 20:55:00
4:15 PM,39.2,31.6,74,30.14,10.0,NW,20.7,31.1,N/A,,Overcast,320,2012-10-25 21:15:00
4:35 PM,39.4,31.3,73,30.16,10.0,NW,19.6,27.6,N/A,,Overcast,320,2012-10-25 21:35:00
4:55 PM,39.4,30.6,71,30.17,10.0,NW,16.1,26.5,N/A,,Overcast,320,2012-10-25 21:55:00
5:15 PM,39.4,30.7,71,30.18,10.0,NNW,18.4,26.5,N/A,,Overcast,330,2012-10-25 22:15:00
5:35 PM,38.3,29.7,71,30.20,10.0,NNW,17.3,31.1,N/A,,Overcast,330,2012-10-25 22:35:00
5:55 PM,38.3,30.0,72,30.20,10.0,NNW,17.3,23.0,N/A,,Overcast,330,2012-10-25 22:55:00
6:15 PM,38.3,29.7,71,30.21,10.0,NNW,16.1,21.9,N/A,,Overcast,330,2012-10-25 23:15:00
6:35 PM,37.8,28.9,71,30.22,10.0,NNW,24.2,31.1,N/A,,Overcast,330,2012-10-25 23:35:00
6:55 PM,37.8,28.9,71,30.25,10.0,NW,16.1,24.2,N/A,,Overcast,320,2012-10-25 23:55:00
7:15 PM,37.8,29.5,72,30.26,10.0,NW,18.4,24.2,N/A,,Overcast,310,2012-10-26 00:15:00
7:35 PM,37.6,29.3,72,30.28,10.0,NW,20.7,26.5,N/A,,Overcast,320,2012-10-26 00:35:00
7:55 PM,36.9,28.2,71,30.27,10.0,NNW,17.3,27.6,N/A,,Overcast,330,2012-10-26 00:55:00
8:15 PM,36.9,28.4,71,30.28,10.0,NW,17.3,26.5,N/A,,Overcast,320,2012-10-26 01:15:00
8:35 PM,36.7,29.1,74,30.29,10.0,NNW,19.6,26.5,N/A,,Overcast,330,2012-10-26 01:35:00
8:55 PM,36.5,28.2,72,30.29,10.0,NNW,17.3,21.9,N/A,,Overcast,330,2012-10-26 01:55:00
9:15 PM,36.5,28.8,74,30.30,10.0,NNW,15.0,23.0,N/A,,Overcast,330,2012-10-26 02:15:00
9:35 PM,36.5,28.2,72,30.31,10.0,NNW,17.3,25.3,N/A,,Overcast,330,2012-10-26 02:35:00
9:55 PM,36.5,27.7,70,30.32,10.0,NNW,17.3,23.0,N/A,,Overcast,330,2012-10-26 02:55:00
10:15 PM,36.7,27.9,70,30.32,10.0,NNW,18.4,25.3,N/A,,Overcast,330,2012-10-26 03:15:00
10:55 PM,36.7,27.7,70,30.33,10.0,NNW,16.1,20.7,N/A,,Overcast,330,2012-10-26 03:55:00
11:15 PM,36.7,26.6,67,30.33,10.0,NNW,13.8,21.9,N/A,,Overcast,330,2012-10-26 04:15:00